Wind_Speed
3 4 5 4 4 5 7 7 7 9 13 17 19 20 19 18 17 17 17 18 16 14 14 12 18 17 15 14 13 13 12 12 11 11 12 12 11 10 9 10 7 6 4
5 6 7 7 7 7 6 7 8 8 7 11 14 19 21 19 16 15 17 20 20 16 17 12 17 18 17 16 15 13 13 14 13 14 13 12 12 11 11 9 8 7 6
8 8 8 8 8 8 8 7 7 6 8 8 9 12 16 20 24 19 18 17 20 17 19 18 19 22 19 17 16 15 15 15 14 15 15 13 13 12 11 11 9 8 7
9 9 10 10 10 11 10 9 8 7 7 8 11 13 13 16 19 18 17 18 18 17 20 20 19 24 22 21 18 19 18 17 16 15 15 15 14 13 12 10 9 9 8
11 11 11 11 11 12 13 11 10 8 6 7 9 11 15 16 18 19 21 22 23 21 22 25 23 25 28 22 22 21 20 18 17 16 15 16 15 13 12 11 10 9 8
11 12 12 12 12 12 14 13 13 10 8 8 8 12 15 15 17 19 20 19 22 23 23 26 26 27 26 26 25 23 19 17 17 15 16 15 14 13 12 11 10 9 8
10 11 11 11 10 13 14 13 14 12 10 7 6 9 13 13 15 16 17 17 18 23 25 24 29 28 30 28 27 27 26 24 18 17 17 15 14 14 14 12 10 10 8
11 11 11 11 11 12 12 13 15 10 10 14 7 4 3 6 12 15 16 19 22 24 23 21 24 31 33 33 32 27 28 25 22 20 18 15 13 14 14 12 11 10 9
13 13 13 13 14 12 12 12 16 18 14 17 17 9 2 6 2 8 13 15 16 19 22 20 22 30 36 37 32 28 27 25 25 23 19 17 15 15 14 13 12 10 9
15 13 13 14 15 15 15 14 16 20 20 14 17 23 18 3 3 2 5 11 13 15 19 19 19 26 32 28 32 30 29 28 26 24 20 18 18 18 15 15 13 12 9
17 17 16 17 17 17 17 17 17 18 22 22 19 12 16 11 9 3 2 1 8 16 15 13 16 26 27 31 28 31 33 33 28 23 20 19 18 17 17 16 14 13 11
22 21 21 19 18 17 18 20 20 20 18 22 25 23 18 10 10 8 2 4 5 7 12 13 15 19 18 18 29 35 36 34 29 23 21 20 17 17 16 16 15 13 11
20 21 20 21 20 19 18 19 21 21 18 18 23 22 24 23 20 19 16 6 5 8 6 13 15 18 20 22 24 23 29 31 28 24 24 21 18 17 18 16 14 12 10
19 21 21 21 20 18 17 18 20 20 19 19 20 22 22 24 24 25 18 12 3 4 5 7 13 16 16 20 23 27 31 33 28 23 21 18 15 16 17 15 13 12 10
20 20 20 23 22 20 20 19 19 21 20 20 22 22 24 23 26 29 27 25 16 6 6 9 7 15 19 19 21 25 25 26 22 24 17 14 17 22 21 19 18 15 14
20 21 21 18 21 20 20 21 22 24 23 22 22 23 24 25 24 26 28 26 24 18 6 9 12 11 16 17 18 20 22 24 21 18 19 16 19 19 18 17 16 16 14
20 20 19 20 21 21 20 19 20 21 21 21 22 24 25 25 24 28 28 27 24 21 12 6 10 13 13 17 20 19 20 20 19 19 18 18 17 15 17 16 15 14 12
19 19 19 19 20 19 18 18 22 21 23 22 22 25 26 25 26 28 27 28 26 23 15 8 12 13 11 17 20 20 20 18 18 17 14 14 11 14 13 13 13 13 11
19 19 18 19 20 17 17 18 21 23 23 22 21 23 23 24 24 24 26 25 25 27 24 14 9 12 8 18 20 19 18 18 17 14 11 10 10 11 10 11 11 10 11
18 18 17 17 16 17 16 16 17 20 20 21 23 22 22 23 24 25 25 25 23 23 21 17 11 10 10 15 20 21 16 15 13 12 12 12 12 13 12 9 9 9 11
16 16 16 15 14 14 15 17 10 12 15 17 18 18 19 19 19 20 26 25 22 20 20 19 9 9 10 13 17 18 15 16 13 12 11 14 14 14 15 14 13 13 14
16 15 15 14 14 16 16 11 5 3 2 4 5 7 6 8 9 12 18 22 22 24 20 15 12 9 12 18 20 22 18 8 4 10 11 10 12 13 13 13 12 13 13
15 14 15 14 15 17 16 11 6 9 12 13 12 10 10 8 4 6 7 8 9 9 13 19 18 15 18 22 23 19 15 9 5 5 10 5 7 8 8 8 8 10 12
13 14 14 15 16 16 13 11 13 17 19 17 14 14 13 11 8 7 12 13 11 9 9 6 9 12 7 15 18 19 17 11 8 6 6 2 3 3 4 6 9 12 14
12 14 13 16 17 16 11 12 17 21 22 20 18 15 15 14 11 13 19 21 20 18 12 10 8 7 9 13 14 15 16 13 3 3 5 2 0 3 5 6 4 3 3
10 12 14 15 15 16 13 14 17 22 23 22 20 19 16 13 10 12 18 18 23 18 20 21 21 21 19 16 12 9 14 10 5 2 5 3 1 2 2 3 2 5 9
Wind_Direction
321 300 290 296 311 317 319 317 289 268 252 246 245 241 239 242 241 240 234 228 229 234 230 237 214 193 196 193 201 202 197 200 199 193 174 164 162 161 162 166 163 135 132
308 292 284 277 278 290 302 305 308 275 268 260 257 249 241 237 235 238 236 233 226 232 226 242 216 202 204 205 206 204 195 188 189 179 176 172 167 170 168 161 168 182 176
305 298 289 278 269 269 272 284 301 303 263 255 260 255 250 243 238 228 241 233 232 228 226 229 220 203 199 200 195 194 193 186 186 182 178 176 172 172 173 179 181 181 167
307 299 288 284 270 261 259 264 269 269 258 251 251 259 251 241 239 236 236 234 231 230 225 227 229 209 199 191 198 194 192 189 184 191 187 181 180 183 183 178 175 172 168
315 305 295 288 280 267 261 258 253 256 251 257 254 252 252 247 239 233 237 238 237 238 230 234 227 218 204 208 194 198 191 191 191 187 192 185 179 181 182 179 179 175 175
316 306 300 295 283 272 261 256 253 252 236 238 251 258 259 253 241 241 243 249 246 240 242 237 229 222 222 203 199 195 188 188 191 190 191 188 184 183 184 181 180 180 179
319 317 311 304 300 278 267 259 252 247 238 234 232 257 261 250 245 244 243 247 252 248 248 247 237 230 214 212 201 199 188 185 193 194 191 191 186 188 190 189 190 187 188
317 315 316 318 310 296 276 261 252 243 235 222 210 224 263 237 241 246 254 259 265 259 251 246 236 232 221 210 209 207 193 182 184 191 191 187 194 196 192 198 201 198 201
317 313 292 299 300 294 276 268 258 252 243 240 217 219 195 236 216 243 238 238 248 247 245 245 246 243 227 212 214 203 194 187 181 185 193 190 189 202 202 205 203 212 215
319 315 309 298 291 284 276 268 258 256 250 242 236 230 240 215 219 242 232 238 238 247 246 244 242 232 219 234 213 199 193 190 186 185 190 199 191 193 205 207 216 214 225
313 310 307 305 299 285 274 270 264 253 250 245 229 223 215 222 222 216 279 231 251 243 242 239 242 244 254 216 209 208 204 193 183 187 191 197 195 197 200 212 218 217 224
312 309 307 303 295 290 281 270 265 260 255 253 247 242 227 203 208 213 205 215 230 239 232 232 232 227 222 240 240 213 201 191 184 191 195 194 198 205 206 213 214 212 228
322 321 317 312 301 286 279 273 265 259 254 255 253 251 242 233 221 219 230 215 216 220 233 236 239 239 235 229 217 211 207 204 210 198 198 194 193 208 216 215 203 210 225
324 324 321 317 313 298 288 278 263 259 251 246 251 252 261 239 233 225 221 208 200 226 236 237 230 231 230 227 220 215 212 211 201 200 197 194 196 208 205 191 197 211 232
321 316 312 308 299 292 287 282 272 263 260 253 247 251 254 260 243 238 229 232 227 220 221 221 219 227 225 228 231 221 206 193 192 187 188 187 201 205 208 217 230 241 243
316 313 311 306 301 297 286 275 266 263 264 261 256 253 253 253 252 247 239 235 229 235 237 200 205 203 211 218 219 218 213 203 208 196 187 204 211 209 221 231 246 251 251
323 316 311 307 306 292 280 277 276 265 257 256 251 252 252 252 239 245 248 243 232 223 227 192 203 208 203 205 203 203 199 194 192 192 188 204 222 229 234 244 248 249 244
330 327 319 316 315 302 296 278 272 269 262 254 247 246 246 247 242 237 241 238 232 223 212 171 191 194 196 200 205 195 192 194 196 201 199 213 224 235 240 242 247 247 234
334 329 324 318 318 316 305 295 278 273 264 256 255 246 246 248 238 231 230 228 222 218 210 192 170 191 186 189 187 187 189 194 196 196 191 210 224 238 242 244 252 243 237
340 338 331 328 328 327 315 302 286 274 262 264 256 255 256 252 239 232 229 221 216 210 197 184 166 168 178 184 189 181 177 185 192 196 212 227 239 237 230 239 244 245 246
351 350 351 352 351 348 341 330 298 270 266 273 255 257 259 252 249 252 228 212 214 206 191 186 164 164 164 167 186 182 174 183 192 205 226 235 234 237 239 247 253 251 252
2 3 6 5 14 12 2 1 346 328 261 213 171 183 193 217 235 233 225 219 223 211 190 173 174 166 171 173 175 179 171 159 173 218 222 234 238 245 250 253 256 262 253
10 14 14 18 28 21 21 30 69 99 98 93 87 84 84 85 119 157 142 150 162 182 206 197 184 183 177 184 179 174 180 167 158 177 189 214 237 252 253 252 250 253 259
15 20 22 31 35 28 30 62 89 93 88 78 75 76 82 85 91 117 128 120 112 119 141 139 178 168 178 184 188 186 175 158 149 160 174 186 218 251 264 268 271 273 270
31 36 31 41 46 42 48 84 98 95 91 86 85 85 90 87 98 117 119 114 102 88 94 108 121 154 144 145 159 163 159 150 127 176 185 176 287 318 294 293 284 272 272
44 48 46 51 49 56 63 92 101 103 97 91 83 81 76 87 104 123 123 121 112 111 115 117 116 118 124 130 140 163 160 150 132 141 193 167 188 360 314 298 262 285 287
Height
821 821 821 821 821 821 821 821 821 822 823 824 825 827 828 829 830 832 832 833 835 836 838 840 841 843 845 847 850 851 851 853 854 854 855 857 859 861 862 863 864 865 865
820 820 819 819 819 819 819 820 820 820 820 821 822 823 825 826 827 828 829 829 831 832 834 836 838 841 843 845 847 849 850 851 852 853 856 857 858 860 861 863 863 864 865
818 818 818 817 818 817 818 818 818 817 818 819 819 819 821 822 823 819 826 827 829 827 830 833 835 837 839 843 844 847 848 850 852 854 854 856 858 859 860 861 863 864 865
816 816 815 815 815 815 815 816 816 816 816 816 817 817 818 819 820 821 822 824 824 824 825 828 831 834 836 837 842 843 846 849 850 853 855 855 856 858 859 861 862 863 864
814 813 813 813 813 812 812 813 813 813 814 814 814 814 815 816 816 818 819 820 820 821 822 825 828 831 832 833 836 841 843 847 849 851 853 854 855 857 858 860 861 862 864
813 812 811 810 810 810 809 810 810 810 811 812 812 813 812 812 812 813 814 815 816 817 820 822 824 826 829 830 831 836 839 845 848 849 852 854 854 856 858 859 860 862 862
811 810 809 808 808 807 807 808 808 808 809 810 811 811 810 808 808 809 809 811 813 814 815 817 820 822 824 827 829 832 833 836 844 848 850 853 852 854 856 858 859 860 861
808 807 806 806 806 805 805 805 805 805 806 807 808 810 808 807 805 805 805 807 809 811 813 814 815 817 819 822 825 827 829 832 837 844 848 850 851 854 855 857 859 859 859
806 805 804 803 803 803 802 802 803 803 802 803 804 805 806 802 802 801 803 804 806 807 809 811 812 814 814 815 819 823 826 830 833 839 844 845 846 851 853 855 857 858 859
803 802 801 800 799 799 798 798 799 799 800 799 799 800 800 801 799 799 801 801 802 804 805 806 808 810 811 811 816 817 823 827 832 835 838 843 843 846 849 852 854 856 857
800 798 797 796 795 794 794 793 794 794 794 795 795 795 796 798 799 800 797 798 800 801 802 803 805 806 808 804 811 812 817 820 826 831 834 839 840 842 845 849 851 852 855
794 793 792 792 791 789 789 788 789 789 790 789 790 790 790 791 794 796 797 796 797 796 797 800 801 802 805 808 811 809 812 817 820 824 830 833 836 840 842 845 848 849 851
790 788 788 786 785 784 783 783 783 783 785 785 786 785 785 786 784 788 792 794 793 794 795 796 798 800 801 804 807 809 812 815 815 823 825 828 830 836 840 841 843 845 847
789 786 784 782 780 779 778 778 778 778 779 779 780 781 781 780 781 781 785 789 792 793 793 793 793 796 798 802 803 806 809 810 814 819 822 823 827 833 835 836 839 841 841
788 785 782 779 777 775 773 773 773 773 774 774 774 775 776 776 775 775 779 782 784 785 789 789 791 791 794 797 800 804 806 807 814 814 818 821 824 827 831 834 836 836 839
785 782 778 775 772 770 768 768 768 768 768 768 769 769 770 771 772 772 772 776 778 780 781 784 787 788 791 794 798 801 803 806 812 814 813 819 824 824 827 830 832 834 833
781 778 774 771 768 765 764 762 761 761 761 762 762 764 764 764 765 767 769 770 772 775 776 781 783 786 788 792 795 798 801 804 807 811 811 817 822 822 825 826 827 829 830
777 774 771 767 764 760 758 757 755 755 755 755 755 755 756 758 759 760 761 764 766 768 771 775 779 783 785 789 792 793 798 802 805 809 809 815 816 820 820 821 823 825 825
774 771 768 765 760 756 753 751 750 749 748 748 749 749 750 752 753 754 755 758 759 761 764 768 774 780 783 785 790 793 794 799 803 806 809 812 813 815 816 817 819 821 820
773 770 766 762 758 753 750 746 743 742 742 743 743 744 745 746 748 749 751 752 754 755 758 763 768 775 779 783 786 789 792 797 802 804 806 809 810 812 814 814 816 816 817
772 768 764 760 756 752 747 742 738 737 739 739 739 740 741 742 743 744 745 747 749 754 755 759 765 771 775 779 783 787 792 797 799 801 805 807 809 811 811 811 812 813 814
771 768 764 761 756 751 745 741 739 738 736 737 737 737 737 739 740 742 744 745 747 750 753 757 763 766 770 774 779 785 790 795 798 800 802 805 806 807 807 807 808 809 811
771 768 765 761 756 752 747 744 742 740 739 740 740 740 740 741 743 743 744 747 750 752 753 756 760 764 768 771 776 783 788 790 795 797 800 802 803 803 804 804 804 806 807
773 769 766 761 757 754 751 747 746 744 743 743 745 745 745 746 746 746 747 749 752 753 757 760 763 766 769 771 775 780 785 790 794 797 798 801 801 801 801 801 802 802 803
775 770 768 763 760 757 754 751 749 749 749 750 751 751 751 751 751 752 752 754 756 758 761 763 766 770 770 773 778 781 786 789 795 797 798 799 799 799 799 799 799 799 800
777 773 771 767 764 761 758 756 754 753 754 755 756 757 757 757 758 758 758 760 760 765 766 768 770 773 774 777 780 784 787 789 792 796 797 799 799 800 799 798 798 798 798